SCP
0 0 0 0 0 0 0 0 0 0 0 0 0 0 0 0 0 0 0 0 0 0 0 0 0 0 0 0 0 0 0 0 0 0 0 0 0 0 -0 -0 -0 -0 -0 0 0 -0 -0 0 0 0 0 -0 -0 -0
0 0 0 0 0 0 0 0 0 0 0 0 0 0 0 0 0 0 0 0 0 0 0 0 0 0 0 0 0 0 0 0 0 0 0 0 0 -0 -0 -0 0 0 0 0 0 0 0 0 -0 0 0 -0 -0 -0
0 0 0 0 0 0 0 0 0 0 0 0 0 0 0 0 0 0 0 0 0 0 0 0 0 0 0 0 0 0 0 0 0 0 0 0 0 0 -0 -0 -0 0 0 0 0 -0 0 0 0 0 0 -0 -0 -0
0 0 0 0 0 0 0 0 0 0 0 0 0 0 0 0 0 0 0 0 0 0 0 0 0 0 0 0 0 0 0 0 0 0 0 0 0 0 0 0 -0 -0 0 0 0 0 0 0 -0 -0 0 -0 -0 -0
0 0 0 0 0 0 0 0 0 0 0 0 0 0 0 0 0 0 0 0 0 0 0 0 0 0 0 0 0 0 0 0 0 0 0 0 0 0 0 0 -0 0 0 0 0 0 -0 0 -0 -0 -0 -0 0 0
0 0 0 0 0 0 0 0 0 0 0 0 0 0 0 0 0 0 0 0 0 0 0 0 0 0 0 0 0 0 0 0 0 0 0 0 0 0 0 0 0 0 0 0 0 0 0 0 -0 0 0 0 0 0
0 0 0 0 0 0 0 0 0 0 0 0 0 0 0 0 0 0 0 0 0 0 0 0 0 0 0 0 0 0 0 0 0 0 0 0 0 0 0 0 0 0 0 0 0 0 -0 0 0 0 -0 0 0 0
0 0 0 0 0 0 0 0 0 0 0 0 0 0 0 0 0 0 0 0 0 0 0 0 0 0 0 0 0 0 0 0 0 0 0 0 0 0 0 0 0 0 0 0 0 0 -0 -0 -0 -0 0 0 0 0
0 0 0 0 0 0 0 0 0 0 0 0 0 0 0 0 0 0 0 0 0 0 0 0 0 0 0 0 0 0 0 0 0 0 0 0 0 0 0 0 0 0 0 0 0 0 0 0 0 0 0 0 0 0
0 0 0 0 0 0 0 0 0 0 0 0 0 0 0 0 0 0 0 0 0 0 0 0 0 0 0 0 0 0 0 0 0 0 0 0 0 0 0 0 0 0 0 0 0 0 0 0 0 0 0 0 0 0
0 0 0 0 0 0 0 0 0 0 0 0 0 0 0 0 0 0 0 0 0 0 0 0 0 0 0 0 0 0 0 0 0 0 0 0 0 0 0 0 0 0 0 0 0 0 0 0 0 0 0 0 0 0
0 0 0 0 0 0 0 0 0 0 0 0 0 0 0 0 0 0 0 0 0 0 0 0 0 0 0 0 0 0 0 0 0 0 0 0 0 0 0 0 0 0 0 0 0 0 0 0 0 0 0 0 -0 0
0 0 0 0 0 0 0 0 0 0 0 0 0 0 0 0 0 0 0 0 0 0 0 0 0 0 0 0 0 0 0 0 0 0 0 0 0 0 0 0 0 0 0 0 0 0 0 0 0 0 0 0 0 0
0 0 0 0 0 0 0 0 0 0 0 0 0 0 0 0 0 0 0 0 0 0 0 0 0 0 0 0 0 0 0 0 0 0 0 0 0 0 0 0 0 0 0 0 0 0 0 0 0 0 0 0 0 0
0 0 0 0 0 0 0 0 0 0 0 0 0 0 0 0 0 0 0 0 0 0 0 0 0 0 0 0 0 0 0 0 0 0 0 0 0 0 0 0 0 0 0 0 0 0 0 0 0 0 0 0 0 0
0 0 0 0 0 0 0 0 0 0 0 0 0 0 0 0 0 0 0 0 0 0 0 0 0 0 0 0 0 0 0 0 0 0 0 0 0 0 0 0 0 0 0 0 0 0 0 0 0 0 0 0 0 0
0 0 0 0 0 0 0 0 0 0 0 0 0 0 0 0 0 0 0 0 0 0 0 0 0 0 0 0 0 0 0 0 0 0 0 0 0 0 0 0 0 0 0 0 0 0 0 0 0 0 0 0 0 0
0 0 0 0 0 0 0 0 0 0 0 0 0 0 0 0 0 0 0 0 0 0 0 0 0 0 0 0 0 -0 -0 0 0 0 0 0 0 0 0 0 0 0 0 0 0 0 0 0 0 0 0 0 0 0
0 0 0 0 0 0 0 0 0 0 0 0 0 0 0 0 0 0 0 0 0 0 0 0 0 0 0 0 -0 -0 0 0 0 0 0 0 0 0 0 0 0 0 0 0 0 0 0 0 0 0 0 0 0 0
0 0 0 0 0 0 0 0 0 0 0 0 0 0 0 0 0 0 0 0 0 0 0 0 0 0 0 0 -0 -0 -0 0 0 0 0 0 0 0 0 0 0 0 0 0 0 0 0 0 0 0 0 0 0 0
0 0 0 0 0 0 0 0 0 0 0 0 0 0 0 0 0 0 0 0 0 0 0 0 0 0 -0 -0 0 0 0 0 0 0 0 0 0 0 0 0 0 0 0 0 0 0 0 0 0 0 0 0 0 0
0 0 0 0 0 0 0 0 0 0 0 0 0 0 0 0 0 0 0 0 0 0 0 0 0 0 0 0 0 0 0 0 0 0 0 0 0 0 0 0 0 0 0 0 0 0 0 0 0 0 0 0 0 0
0 0 0 0 0 0 0 0 0 0 0 0 0 0 0 0 0 0 0 0 0 0 0 0 0 0 0 0 0 0 0 0 0 0 0 0 0 0 0 0 0 0 0 0 0 0 0 0 0 0 0 0 0 0
0 0 0 0 0 0 0 0 0 0 0 0 0 0 0 0 0 0 0 0 0 0 -0 -0 -0 0 0 0 0 0 0 0 0 0 0 0 0 0 0 0 0 0 0 0 0 0 0 0 0 0 0 0 0 0
0 0 0 0 0 0 0 0 0 0 0 0 0 0 0 0 0 0 0 0 -0 -0 -0 0 0 0 0 0 0 0 0 0 0 0 0 0 0 0 0 0 0 0 0 0 0 0 0 0 0 0 0 0 0 0
0 0 0 0 0 0 0 0 0 0 0 0 0 0 0 0 0 -0 -0 -0 -0 -0 -0 0 0 0 0 0 0 0 0 0 0 0 0 0 0 0 0 0 0 0 0 0 0 0 0 -0 -0 -0 0 0 0 0
0 0 0 0 0 0 0 0 0 0 0 0 0 0 0 0 0 -0 -0 -0 0 0 0 0 0 0 0 0 0 0 0 0 0 0 0 0 0 0 0 0 0 0 0 0 -0 -0 -0 -0 -0 0 0 0 0 0
0 0 0 0 0 0 0 0 0 0 0 0 0 0 -0 -0 -0 0 0 0 0 0 0 0 0 0 0 0 0 0 0 0 0 0 0 0 0 0 0 0 0 -0 -0 -0 -0 -0 -0 0 0 0 0 0 0 0
0 0 0 0 0 0 0 0 0 0 0 0 0 0 -0 0 0 0 -0 -0 -0 0 0 0 0 0 0 0 0 0 0 0 0 0 0 0 0 0 0 -0 -0 -0 -0 -0 -0 0 0 0 0 0 0 0 0 0
0 0 0 0 0 0 0 0 0 0 0 0 0 0 0 0 -0 -0 -0 0 0 0 0 0 0 0 0 0 0 0 0 0 0 0 0 0 0 -0 -0 -0 -0 0 0 0 0 0 0 0 0 0 0 0 0 0
0 0 0 0 0 0 0 0 0 0 0 0 0 0 0 0 0 0 0 0 0 0 0 0 0 0 0 0 0 0 0 0 0 0 -0 -0 -0 0 0 0 0 0 0 0 0 0 0 0 0 0 0 0 0 0
0 0 0 0 0 0 0 0 0 0 0 0 0 0 0 0 0 0 0 0 0 0 -0 0 0 0 0 -0 -0 -0 -0 -0 -0 0 0 0 0 0 0 0 0 0 0 0 0 0 0 0 0 0 0 0 0 0
0 0 0 0 0 0 0 0 0 0 0 0 0 0 0 0 0 0 0 0 0 -0 -0 -0 -0 -0 -0 -0 -0 -0 0 0 0 0 0 0 0 0 0 0 0 0 0 0 0 0 0 0 0 0 0 0 0 0
Wind_Speed_500mb
117 125 119 102 86 69 68 65 65 73 66 52 49 41 38 38 30 29 42 42 43 40 61 73 60 49 36 23 14 31 18 1 2 1 3 4 6 6 8 9 10 6 5 1 3 6 7 4 8 5 5 8 11 12
123 128 124 110 92 73 65 66 60 84 71 56 45 41 43 32 31 30 41 45 45 57 63 76 89 83 69 63 46 20 18 5 4 5 5 5 10 7 5 8 4 6 4 8 10 7 4 9 23 23 16 20 17 12
114 127 125 116 96 72 64 62 75 78 55 50 47 47 32 36 32 34 46 47 51 49 57 47 35 45 48 41 41 28 22 25 18 29 8 6 13 5 8 10 10 7 5 7 4 6 13 29 38 36 28 25 26 21
107 120 125 117 97 74 66 73 75 73 60 51 49 39 34 33 32 28 44 45 43 30 17 32 29 49 47 25 32 45 53 29 28 25 19 10 8 11 11 14 15 20 11 10 15 19 22 7 16 18 24 24 29 21
102 115 122 117 101 70 65 80 77 63 50 50 45 41 33 27 26 35 50 57 54 39 13 32 70 20 14 13 18 28 42 46 31 12 11 10 9 14 16 11 19 16 8 6 10 10 13 22 26 40 27 32 28 26
94 107 120 119 104 72 68 89 78 52 50 47 43 34 19 25 20 39 18 9 13 28 7 6 16 30 20 15 21 31 32 33 24 14 10 13 22 14 6 6 1 4 7 8 11 34 37 42 29 13 29 31 25 23
95 104 121 123 92 71 82 81 65 54 47 46 37 18 25 21 30 35 15 9 13 1 5 8 9 7 12 17 9 11 14 19 19 10 12 11 17 22 5 7 3 13 20 23 19 29 18 15 24 50 48 41 35 33
93 109 121 111 78 86 82 75 58 51 45 35 17 17 25 39 45 37 45 42 31 20 10 4 8 12 3 6 7 4 6 12 16 8 6 2 9 6 7 1 9 19 30 7 14 37 37 43 32 33 32 33 34 32
90 111 125 93 91 84 77 65 54 48 35 21 10 19 36 12 12 15 14 13 26 15 6 4 4 6 7 5 9 5 4 4 5 5 3 3 3 8 3 7 16 23 21 34 46 42 19 32 31 31 34 30 30 29
91 119 106 96 90 80 71 62 52 40 28 19 8 11 12 16 26 9 22 16 18 19 17 6 8 5 10 8 5 6 2 3 4 1 8 5 5 4 3 10 19 26 29 33 42 37 47 41 38 39 40 38 33 30
102 117 101 94 78 68 62 57 45 39 29 14 14 10 18 16 18 9 9 10 13 6 12 10 23 6 7 4 5 3 4 2 4 1 4 2 5 6 4 15 21 24 26 29 33 35 32 33 40 44 41 36 21 18
120 110 101 92 82 69 63 48 49 44 24 20 12 13 6 8 7 6 6 4 7 6 8 6 5 7 6 7 4 3 4 0 8 3 3 5 3 2 15 21 23 25 28 27 24 19 18 26 31 32 32 27 16 17
115 104 99 84 74 68 54 53 43 33 25 15 9 10 7 6 5 10 11 4 3 7 8 3 1 4 6 9 5 2 6 8 1 4 5 3 4 9 20 24 21 22 25 24 17 17 22 24 24 23 20 19 15 9
100 94 80 76 65 59 61 45 41 38 16 10 12 6 7 6 7 6 6 6 7 8 2 3 4 5 5 4 2 6 1 3 4 4 6 4 5 15 21 24 25 24 23 20 18 20 22 22 21 21 19 17 16 14
86 78 71 62 60 58 50 45 34 34 10 9 10 7 9 7 7 10 10 8 11 6 2 1 3 3 2 5 5 0 3 8 9 5 2 4 8 17 22 23 22 20 18 17 15 17 18 20 21 20 20 20 20 20
74 70 65 61 57 50 47 47 40 21 11 9 7 7 5 3 4 11 13 8 16 9 2 4 3 3 9 6 7 12 4 9 1 0 1 4 11 18 22 21 20 18 16 13 12 13 14 16 16 17 18 16 15 14
67 52 59 57 49 52 51 41 21 10 10 8 5 16 18 5 9 19 22 21 22 13 3 5 5 16 2 6 7 8 7 2 2 3 5 9 14 17 17 15 14 15 14 10 9 10 10 10 11 11 8 10 11 11
47 59 53 55 65 61 39 13 11 10 7 11 7 14 19 17 11 12 16 20 22 14 15 9 3 6 7 7 4 3 3 3 5 4 7 12 11 13 11 8 9 11 12 11 11 10 10 9 9 11 13 14 15 14
45 47 50 46 58 35 12 12 9 10 14 6 13 15 12 12 20 24 20 21 31 20 9 9 4 6 7 6 6 6 5 5 6 10 14 7 5 7 5 4 6 6 7 7 8 8 9 11 13 14 15 14 12 12
28 30 41 52 53 13 10 8 12 7 10 12 14 12 10 11 16 17 20 20 26 14 7 6 8 10 9 7 9 8 8 9 10 7 5 5 5 5 1 2 2 2 4 7 10 12 14 16 17 16 13 11 11 11
35 50 53 54 28 13 9 13 10 9 8 8 8 7 9 12 13 13 16 23 16 11 6 25 29 24 21 17 14 14 14 11 10 9 9 8 8 5 3 1 2 5 8 11 13 16 17 16 13 11 10 11 11 12
36 50 38 26 9 11 8 13 9 12 6 5 6 6 5 3 5 6 16 14 11 14 18 17 22 26 25 21 18 17 15 12 11 10 9 7 7 8 4 2 6 9 11 14 15 14 12 10 9 9 10 10 10 11
40 33 14 9 7 7 6 18 6 7 4 3 3 4 4 4 3 14 6 11 11 17 21 22 21 19 20 20 19 16 13 11 10 10 10 10 9 6 4 6 8 11 13 13 10 8 7 7 8 9 9 10 13 12
24 11 8 7 6 5 14 6 7 7 6 4 4 5 5 6 10 2 6 7 9 12 15 15 16 15 15 17 19 15 12 11 10 12 12 11 7 5 6 8 10 10 8 6 6 7 8 8 9 10 12 12 12 12
12 1 6 4 7 8 7 4 5 5 6 4 4 6 3 8 3 5 6 4 8 15 13 8 10 13 14 14 15 15 13 11 11 14 14 12 5 4 6 7 7 5 4 7 9 9 9 10 11 11 10 11 10 11
7 4 6 11 2 9 10 8 9 12 6 4 10 3 4 4 1 9 5 5 5 12 11 8 8 10 11 13 13 13 13 12 12 15 18 15 7 5 7 5 1 4 9 10 10 10 10 10 11 11 10 10 9 10
8 7 6 10 10 16 7 5 8 6 8 9 6 5 4 5 9 5 2 5 3 8 8 7 8 9 12 14 13 13 11 8 9 12 14 14 11 7 5 3 8 12 14 13 11 11 11 11 11 10 9 10 10 11
7 17 13 22 8 6 9 4 9 12 7 8 10 6 10 11 6 2 3 5 5 5 7 8 10 11 14 15 14 11 8 7 7 9 10 13 12 7 7 10 14 17 16 14 13 13 12 11 10 10 11 10 9 10
8 23 19 6 6 4 7 8 8 8 12 13 6 5 4 3 2 3 4 5 5 5 5 6 7 8 8 9 10 9 9 8 7 10 10 9 10 9 15 20 24 22 19 16 14 13 12 12 12 11 10 10 10 13
8 18 11 5 9 7 5 6 8 15 12 10 8 6 4 3 1 3 3 4 5 7 7 8 8 7 5 7 10 10 9 8 10 10 11 12 15 23 28 29 27 23 20 18 15 13 13 13 11 10 10 10 13 15
18 8 9 7 4 4 11 16 16 14 10 7 8 6 6 6 5 5 4 5 7 7 7 6 6 6 5 6 9 10 12 14 15 17 20 24 27 30 30 28 25 22 19 16 15 16 14 12 10 10 11 13 14 16
7 6 7 6 3 15 19 7 8 5 5 4 4 7 7 6 6 6 4 4 5 4 5 5 5 6 8 12 16 17 19 20 21 23 27 30 31 30 28 25 22 20 17 17 16 16 15 12 10 11 12 13 14 16
9 8 10 12 8 7 12 10 5 5 4 3 3 6 6 6 5 9 5 1 3 3 4 6 9 14 20 22 23 23 23 25 27 29 30 30 29 27 24 23 21 20 20 20 19 17 14 13 11 11 12 13 15 17
Wind_Direction_500mb
284 276 270 267 264 258 256 250 250 247 248 256 254 264 258 273 271 267 275 279 277 269 282 276 278 268 268 261 281 298 323 333 91 282 257 302 269 321 300 281 293 299 315 213 216 236 291 144 131 285 8 312 293 282
279 274 269 267 258 252 246 249 246 236 245 249 253 248 262 265 267 269 276 283 291 272 262 282 288 284 269 278 264 252 236 191 256 243 220 271 281 276 291 292 214 303 274 308 222 248 280 254 257 278 288 296 303 288
280 270 264 261 252 245 240 241 233 238 246 254 243 256 259 260 266 268 280 285 285 275 287 273 279 299 289 278 271 244 248 226 225 227 236 241 250 232 266 270 282 251 201 262 284 218 251 270 287 284 276 284 303 295
277 271 261 254 246 246 236 236 238 246 247 246 257 256 255 265 280 285 285 292 289 281 276 291 288 297 300 270 243 245 247 238 245 220 225 241 248 231 259 271 279 279 295 257 266 277 321 5 334 335 293 297 306 290
275 269 257 247 242 241 226 228 241 237 246 253 255 247 252 269 284 289 277 278 273 250 278 301 304 282 289 276 249 245 240 239 233 221 226 239 237 242 250 269 261 237 248 232 278 343 308 290 305 317 307 305 305 301
272 269 253 241 238 229 221 227 224 233 247 252 245 250 258 272 296 299 306 280 254 210 266 290 289 287 281 280 280 269 245 235 218 205 225 229 230 209 250 237 143 19 332 306 292 305 303 297 300 295 333 324 304 294
271 260 243 236 232 216 220 223 234 237 239 240 242 237 260 276 277 267 243 193 158 95 242 291 282 257 292 295 276 270 232 209 206 219 224 235 228 211 219 249 91 325 317 314 284 322 316 325 315 303 304 295 287 278
269 249 234 225 218 208 219 219 223 233 235 236 217 251 272 277 275 254 244 231 241 243 210 258 272 310 328 293 301 255 231 216 214 239 242 267 282 242 244 71 342 330 334 298 314 325 308 305 316 319 314 304 284 283
263 239 226 215 201 207 211 215 217 219 214 192 216 268 289 206 171 156 116 186 228 241 216 196 242 275 331 305 286 287 256 251 239 234 194 260 241 228 82 319 334 338 329 304 318 325 322 317 321 327 331 316 295 280
253 225 213 199 200 202 206 204 203 197 177 182 226 237 197 180 176 244 273 216 208 205 216 232 210 268 330 350 309 309 313 302 265 102 314 223 257 148 120 338 325 324 323 321 323 327 325 328 331 330 332 330 303 282
229 209 195 193 198 199 190 188 187 161 173 168 183 198 175 190 284 199 186 184 177 195 211 229 215 239 262 221 259 248 310 279 269 163 283 241 254 153 307 331 328 325 325 320 308 308 310 312 318 322 329 333 313 285
205 196 190 190 187 184 185 183 163 171 164 165 175 205 254 166 165 184 195 197 206 197 172 170 161 217 248 227 216 228 264 313 257 349 264 247 185 92 339 340 341 337 336 338 327 330 328 324 319 321 325 329 312 302
190 182 183 182 173 172 171 163 164 167 156 170 161 147 153 174 181 199 189 190 178 180 162 88 301 223 218 221 235 229 236 232 335 233 242 240 115 351 342 338 347 347 351 356 3 355 345 344 344 344 346 343 341 334
173 166 167 160 158 156 153 162 165 155 148 157 149 172 203 189 230 187 170 161 147 145 151 269 238 210 211 212 204 239 209 288 258 256 234 139 4 343 344 343 346 357 359 6 11 6 5 10 18 21 21 29 41 53
149 149 149 152 151 151 158 166 161 151 156 146 144 203 201 225 209 151 150 142 164 170 129 221 231 202 228 245 200 10 236 250 220 240 114 94 355 350 348 350 353 357 7 14 18 21 30 37 43 48 54 58 60 62
137 142 150 154 156 159 163 159 147 154 165 161 172 127 149 133 210 194 201 197 179 167 121 138 142 195 240 211 181 216 217 236 278 32 120 345 346 348 350 354 356 4 11 18 30 37 45 53 57 59 58 57 58 57
146 144 157 157 159 163 157 147 143 160 180 185 220 200 184 177 187 204 226 218 187 168 183 133 190 223 319 215 229 200 216 201 210 263 277 312 331 340 349 357 10 23 28 38 57 57 55 54 47 34 19 17 12 6
142 145 152 152 160 155 146 133 154 160 181 201 195 199 203 217 212 229 254 218 190 194 167 204 224 222 232 213 219 149 147 243 289 257 286 306 317 336 347 6 29 43 51 57 58 50 36 21 7 357 356 353 351 351
145 153 163 170 176 148 127 160 164 182 215 194 222 227 220 235 245 249 241 229 213 209 194 168 182 215 229 208 203 199 222 270 279 284 296 287 316 341 353 35 47 49 49 40 31 16 360 349 347 344 344 345 347 356
157 171 173 177 176 138 132 146 182 181 179 202 220 221 215 226 242 245 241 229 207 193 190 200 214 233 217 215 210 231 256 283 294 302 262 257 293 325 355 53 44 1 354 353 348 343 339 341 343 344 347 356 8 13
172 166 170 179 162 136 147 162 165 178 170 182 224 224 236 242 237 229 217 198 182 209 225 220 225 233 240 244 249 257 259 271 276 258 261 266 267 227 197 246 311 335 344 342 336 334 341 343 351 2 10 14 19 26
169 181 158 159 118 132 128 161 149 158 155 161 181 229 264 272 230 207 170 183 221 224 218 224 225 228 234 243 247 249 254 263 264 252 246 232 200 189 193 275 319 323 332 336 337 340 346 0 20 25 24 28 47 62
176 172 134 108 111 122 122 155 140 152 127 218 158 22 285 262 199 162 242 226 238 227 226 226 230 232 235 241 241 243 242 247 247 229 209 198 192 209 259 293 326 338 337 337 342 360 33 51 49 47 62 76 81 77
171 130 112 123 122 120 134 106 133 125 118 79 103 283 273 220 169 203 250 245 220 205 204 216 222 225 227 225 222 220 229 236 231 212 202 200 206 239 286 315 330 337 351 20 62 85 80 69 79 88 94 92 81 63
129 186 153 51 110 101 80 51 16 74 218 199 115 290 250 170 186 232 232 255 198 193 197 207 212 212 213 210 211 222 230 223 214 202 193 188 195 293 309 320 329 1 71 106 105 98 94 99 99 96 87 77 60 49
161 181 147 171 161 140 174 143 193 199 150 180 230 247 160 122 176 242 232 174 184 193 199 212 216 213 212 210 213 214 211 215 215 208 207 218 244 287 308 329 79 126 129 121 116 112 113 106 101 86 67 55 54 55
139 189 149 147 143 133 81 90 137 124 157 197 206 149 130 208 243 250 200 192 180 185 203 230 226 206 194 194 201 204 204 212 215 221 222 217 227 262 276 190 153 148 137 132 131 125 117 107 89 73 69 72 63 47
130 162 157 165 135 161 136 140 157 189 196 175 135 182 191 199 237 180 198 202 226 219 214 207 202 201 202 206 207 202 217 224 246 227 224 218 218 225 191 164 154 149 146 140 134 126 116 101 88 92 90 74 56 37
116 138 132 67 110 150 178 170 193 164 158 172 172 202 222 202 245 214 201 215 219 197 181 165 156 158 172 179 189 214 226 238 226 189 185 187 180 167 157 153 152 149 139 135 133 125 110 101 104 97 80 59 38 21
139 147 97 96 129 197 158 151 145 152 154 155 140 133 142 156 151 154 162 161 153 146 144 145 160 179 193 213 218 212 203 185 164 163 163 155 147 148 147 144 142 139 137 131 125 118 115 115 106 87 64 42 28 21
132 117 86 74 120 120 137 133 134 131 133 154 161 163 153 145 139 117 113 131 135 151 176 203 227 232 223 197 173 159 150 149 144 145 143 143 142 141 139 138 136 134 134 130 128 125 119 110 94 76 54 36 22 16
125 118 129 116 127 141 136 131 133 118 128 146 157 160 158 162 172 176 142 157 192 221 245 246 225 193 173 156 147 143 138 139 142 142 140 140 140 139 137 134 133 132 127 127 127 120 113 101 80 60 44 28 22 21
114 107 100 112 127 183 170 150 140 118 106 124 152 170 183 190 193 179 185 264 254 209 174 158 149 145 144 143 142 140 138 136 136 137 138 136 136 136 134 132 132 131 131 128 122 115 104 86 64 47 36 32 38 44
Wind_Speed_850mb
117 125 119 102 86 69 68 65 65 73 66 52 49 41 38 38 30 29 42 42 43 40 61 73 60 49 36 23 14 31 18 1 2 1 3 4 6 6 8 9 10 6 5 1 3 6 7 4 8 5 5 8 11 12
123 128 124 110 92 73 65 66 60 84 71 56 45 41 43 32 31 30 41 45 45 57 63 76 89 83 69 63 46 20 18 5 4 5 5 5 10 7 5 8 4 6 4 8 10 7 4 9 23 23 16 20 17 12
114 127 125 116 96 72 64 62 75 78 55 50 47 47 32 36 32 34 46 47 51 49 57 47 35 45 48 41 41 28 22 25 18 29 8 6 13 5 8 10 10 7 5 7 4 6 13 29 38 36 28 25 26 21
107 120 125 117 97 74 66 73 75 73 60 51 49 39 34 33 32 28 44 45 43 30 17 32 29 49 47 25 32 45 53 29 28 25 19 10 8 11 11 14 15 20 11 10 15 19 22 7 16 18 24 24 29 21
102 115 122 117 101 70 65 80 77 63 50 50 45 41 33 27 26 35 50 57 54 39 13 32 70 20 14 13 18 28 42 46 31 12 11 10 9 14 16 11 19 16 8 6 10 10 13 22 26 40 27 32 28 26
94 107 120 119 104 72 68 89 78 52 50 47 43 34 19 25 20 39 18 9 13 28 7 6 16 30 20 15 21 31 32 33 24 14 10 13 22 14 6 6 1 4 7 8 11 34 37 42 29 13 29 31 25 23
95 104 121 123 92 71 82 81 65 54 47 46 37 18 25 21 30 35 15 9 13 1 5 8 9 7 12 17 9 11 14 19 19 10 12 11 17 22 5 7 3 13 20 23 19 29 18 15 24 50 48 41 35 33
93 109 121 111 78 86 82 75 58 51 45 35 17 17 25 39 45 37 45 42 31 20 10 4 8 12 3 6 7 4 6 12 16 8 6 2 9 6 7 1 9 19 30 7 14 37 37 43 32 33 32 33 34 32
90 111 125 93 91 84 77 65 54 48 35 21 10 19 36 12 12 15 14 13 26 15 6 4 4 6 7 5 9 5 4 4 5 5 3 3 3 8 3 7 16 23 21 34 46 42 19 32 31 31 34 30 30 29
91 119 106 96 90 80 71 62 52 40 28 19 8 11 12 16 26 9 22 16 18 19 17 6 8 5 10 8 5 6 2 3 4 1 8 5 5 4 3 10 19 26 29 33 42 37 47 41 38 39 40 38 33 30
102 117 101 94 78 68 62 57 45 39 29 14 14 10 18 16 18 9 9 10 13 6 12 10 23 6 7 4 5 3 4 2 4 1 4 2 5 6 4 15 21 24 26 29 33 35 32 33 40 44 41 36 21 18
120 110 101 92 82 69 63 48 49 44 24 20 12 13 6 8 7 6 6 4 7 6 8 6 5 7 6 7 4 3 4 0 8 3 3 5 3 2 15 21 23 25 28 27 24 19 18 26 31 32 32 27 16 17
115 104 99 84 74 68 54 53 43 33 25 15 9 10 7 6 5 10 11 4 3 7 8 3 1 4 6 9 5 2 6 8 1 4 5 3 4 9 20 24 21 22 25 24 17 17 22 24 24 23 20 19 15 9
100 94 80 76 65 59 61 45 41 38 16 10 12 6 7 6 7 6 6 6 7 8 2 3 4 5 5 4 2 6 1 3 4 4 6 4 5 15 21 24 25 24 23 20 18 20 22 22 21 21 19 17 16 14
86 78 71 62 60 58 50 45 34 34 10 9 10 7 9 7 7 10 10 8 11 6 2 1 3 3 2 5 5 0 3 8 9 5 2 4 8 17 22 23 22 20 18 17 15 17 18 20 21 20 20 20 20 20
74 70 65 61 57 50 47 47 40 21 11 9 7 7 5 3 4 11 13 8 16 9 2 4 3 3 9 6 7 12 4 9 1 0 1 4 11 18 22 21 20 18 16 13 12 13 14 16 16 17 18 16 15 14
67 52 59 57 49 52 51 41 21 10 10 8 5 16 18 5 9 19 22 21 22 13 3 5 5 16 2 6 7 8 7 2 2 3 5 9 14 17 17 15 14 15 14 10 9 10 10 10 11 11 8 10 11 11
47 59 53 55 65 61 39 13 11 10 7 11 7 14 19 17 11 12 16 20 22 14 15 9 3 6 7 7 4 3 3 3 5 4 7 12 11 13 11 8 9 11 12 11 11 10 10 9 9 11 13 14 15 14
45 47 50 46 58 35 12 12 9 10 14 6 13 15 12 12 20 24 20 21 31 20 9 9 4 6 7 6 6 6 5 5 6 10 14 7 5 7 5 4 6 6 7 7 8 8 9 11 13 14 15 14 12 12
28 30 41 52 53 13 10 8 12 7 10 12 14 12 10 11 16 17 20 20 26 14 7 6 8 10 9 7 9 8 8 9 10 7 5 5 5 5 1 2 2 2 4 7 10 12 14 16 17 16 13 11 11 11
35 50 53 54 28 13 9 13 10 9 8 8 8 7 9 12 13 13 16 23 16 11 6 25 29 24 21 17 14 14 14 11 10 9 9 8 8 5 3 1 2 5 8 11 13 16 17 16 13 11 10 11 11 12
36 50 38 26 9 11 8 13 9 12 6 5 6 6 5 3 5 6 16 14 11 14 18 17 22 26 25 21 18 17 15 12 11 10 9 7 7 8 4 2 6 9 11 14 15 14 12 10 9 9 10 10 10 11
40 33 14 9 7 7 6 18 6 7 4 3 3 4 4 4 3 14 6 11 11 17 21 22 21 19 20 20 19 16 13 11 10 10 10 10 9 6 4 6 8 11 13 13 10 8 7 7 8 9 9 10 13 12
24 11 8 7 6 5 14 6 7 7 6 4 4 5 5 6 10 2 6 7 9 12 15 15 16 15 15 17 19 15 12 11 10 12 12 11 7 5 6 8 10 10 8 6 6 7 8 8 9 10 12 12 12 12
12 1 6 4 7 8 7 4 5 5 6 4 4 6 3 8 3 5 6 4 8 15 13 8 10 13 14 14 15 15 13 11 11 14 14 12 5 4 6 7 7 5 4 7 9 9 9 10 11 11 10 11 10 11
7 4 6 11 2 9 10 8 9 12 6 4 10 3 4 4 1 9 5 5 5 12 11 8 8 10 11 13 13 13 13 12 12 15 18 15 7 5 7 5 1 4 9 10 10 10 10 10 11 11 10 10 9 10
8 7 6 10 10 16 7 5 8 6 8 9 6 5 4 5 9 5 2 5 3 8 8 7 8 9 12 14 13 13 11 8 9 12 14 14 11 7 5 3 8 12 14 13 11 11 11 11 11 10 9 10 10 11
7 17 13 22 8 6 9 4 9 12 7 8 10 6 10 11 6 2 3 5 5 5 7 8 10 11 14 15 14 11 8 7 7 9 10 13 12 7 7 10 14 17 16 14 13 13 12 11 10 10 11 10 9 10
8 23 19 6 6 4 7 8 8 8 12 13 6 5 4 3 2 3 4 5 5 5 5 6 7 8 8 9 10 9 9 8 7 10 10 9 10 9 15 20 24 22 19 16 14 13 12 12 12 11 10 10 10 13
8 18 11 5 9 7 5 6 8 15 12 10 8 6 4 3 1 3 3 4 5 7 7 8 8 7 5 7 10 10 9 8 10 10 11 12 15 23 28 29 27 23 20 18 15 13 13 13 11 10 10 10 13 15
18 8 9 7 4 4 11 16 16 14 10 7 8 6 6 6 5 5 4 5 7 7 7 6 6 6 5 6 9 10 12 14 15 17 20 24 27 30 30 28 25 22 19 16 15 16 14 12 10 10 11 13 14 16
7 6 7 6 3 15 19 7 8 5 5 4 4 7 7 6 6 6 4 4 5 4 5 5 5 6 8 12 16 17 19 20 21 23 27 30 31 30 28 25 22 20 17 17 16 16 15 12 10 11 12 13 14 16
9 8 10 12 8 7 12 10 5 5 4 3 3 6 6 6 5 9 5 1 3 3 4 6 9 14 20 22 23 23 23 25 27 29 30 30 29 27 24 23 21 20 20 20 19 17 14 13 11 11 12 13 15 17
Wind_Direction_850mb
284 276 270 267 264 258 256 250 250 247 248 256 254 264 258 273 271 267 275 279 277 269 282 276 278 268 268 261 281 298 323 333 91 282 257 302 269 321 300 281 293 299 315 213 216 236 291 144 131 285 8 312 293 282
279 274 269 267 258 252 246 249 246 236 245 249 253 248 262 265 267 269 276 283 291 272 262 282 288 284 269 278 264 252 236 191 256 243 220 271 281 276 291 292 214 303 274 308 222 248 280 254 257 278 288 296 303 288
280 270 264 261 252 245 240 241 233 238 246 254 243 256 259 260 266 268 280 285 285 275 287 273 279 299 289 278 271 244 248 226 225 227 236 241 250 232 266 270 282 251 201 262 284 218 251 270 287 284 276 284 303 295
277 271 261 254 246 246 236 236 238 246 247 246 257 256 255 265 280 285 285 292 289 281 276 291 288 297 300 270 243 245 247 238 245 220 225 241 248 231 259 271 279 279 295 257 266 277 321 5 334 335 293 297 306 290
275 269 257 247 242 241 226 228 241 237 246 253 255 247 252 269 284 289 277 278 273 250 278 301 304 282 289 276 249 245 240 239 233 221 226 239 237 242 250 269 261 237 248 232 278 343 308 290 305 317 307 305 305 301
272 269 253 241 238 229 221 227 224 233 247 252 245 250 258 272 296 299 306 280 254 210 266 290 289 287 281 280 280 269 245 235 218 205 225 229 230 209 250 237 143 19 332 306 292 305 303 297 300 295 333 324 304 294
271 260 243 236 232 216 220 223 234 237 239 240 242 237 260 276 277 267 243 193 158 95 242 291 282 257 292 295 276 270 232 209 206 219 224 235 228 211 219 249 91 325 317 314 284 322 316 325 315 303 304 295 287 278
269 249 234 225 218 208 219 219 223 233 235 236 217 251 272 277 275 254 244 231 241 243 210 258 272 310 328 293 301 255 231 216 214 239 242 267 282 242 244 71 342 330 334 298 314 325 308 305 316 319 314 304 284 283
263 239 226 215 201 207 211 215 217 219 214 192 216 268 289 206 171 156 116 186 228 241 216 196 242 275 331 305 286 287 256 251 239 234 194 260 241 228 82 319 334 338 329 304 318 325 322 317 321 327 331 316 295 280
253 225 213 199 200 202 206 204 203 197 177 182 226 237 197 180 176 244 273 216 208 205 216 232 210 268 330 350 309 309 313 302 265 102 314 223 257 148 120 338 325 324 323 321 323 327 325 328 331 330 332 330 303 282
229 209 195 193 198 199 190 188 187 161 173 168 183 198 175 190 284 199 186 184 177 195 211 229 215 239 262 221 259 248 310 279 269 163 283 241 254 153 307 331 328 325 325 320 308 308 310 312 318 322 329 333 313 285
205 196 190 190 187 184 185 183 163 171 164 165 175 205 254 166 165 184 195 197 206 197 172 170 161 217 248 227 216 228 264 313 257 349 264 247 185 92 339 340 341 337 336 338 327 330 328 324 319 321 325 329 312 302
190 182 183 182 173 172 171 163 164 167 156 170 161 147 153 174 181 199 189 190 178 180 162 88 301 223 218 221 235 229 236 232 335 233 242 240 115 351 342 338 347 347 351 356 3 355 345 344 344 344 346 343 341 334
173 166 167 160 158 156 153 162 165 155 148 157 149 172 203 189 230 187 170 161 147 145 151 269 238 210 211 212 204 239 209 288 258 256 234 139 4 343 344 343 346 357 359 6 11 6 5 10 18 21 21 29 41 53
149 149 149 152 151 151 158 166 161 151 156 146 144 203 201 225 209 151 150 142 164 170 129 221 231 202 228 245 200 10 236 250 220 240 114 94 355 350 348 350 353 357 7 14 18 21 30 37 43 48 54 58 60 62
137 142 150 154 156 159 163 159 147 154 165 161 172 127 149 133 210 194 201 197 179 167 121 138 142 195 240 211 181 216 217 236 278 32 120 345 346 348 350 354 356 4 11 18 30 37 45 53 57 59 58 57 58 57
146 144 157 157 159 163 157 147 143 160 180 185 220 200 184 177 187 204 226 218 187 168 183 133 190 223 319 215 229 200 216 201 210 263 277 312 331 340 349 357 10 23 28 38 57 57 55 54 47 34 19 17 12 6
142 145 152 152 160 155 146 133 154 160 181 201 195 199 203 217 212 229 254 218 190 194 167 204 224 222 232 213 219 149 147 243 289 257 286 306 317 336 347 6 29 43 51 57 58 50 36 21 7 357 356 353 351 351
145 153 163 170 176 148 127 160 164 182 215 194 222 227 220 235 245 249 241 229 213 209 194 168 182 215 229 208 203 199 222 270 279 284 296 287 316 341 353 35 47 49 49 40 31 16 360 349 347 344 344 345 347 356
157 171 173 177 176 138 132 146 182 181 179 202 220 221 215 226 242 245 241 229 207 193 190 200 214 233 217 215 210 231 256 283 294 302 262 257 293 325 355 53 44 1 354 353 348 343 339 341 343 344 347 356 8 13
172 166 170 179 162 136 147 162 165 178 170 182 224 224 236 242 237 229 217 198 182 209 225 220 225 233 240 244 249 257 259 271 276 258 261 266 267 227 197 246 311 335 344 342 336 334 341 343 351 2 10 14 19 26
169 181 158 159 118 132 128 161 149 158 155 161 181 229 264 272 230 207 170 183 221 224 218 224 225 228 234 243 247 249 254 263 264 252 246 232 200 189 193 275 319 323 332 336 337 340 346 0 20 25 24 28 47 62
176 172 134 108 111 122 122 155 140 152 127 218 158 22 285 262 199 162 242 226 238 227 226 226 230 232 235 241 241 243 242 247 247 229 209 198 192 209 259 293 326 338 337 337 342 360 33 51 49 47 62 76 81 77
171 130 112 123 122 120 134 106 133 125 118 79 103 283 273 220 169 203 250 245 220 205 204 216 222 225 227 225 222 220 229 236 231 212 202 200 206 239 286 315 330 337 351 20 62 85 80 69 79 88 94 92 81 63
129 186 153 51 110 101 80 51 16 74 218 199 115 290 250 170 186 232 232 255 198 193 197 207 212 212 213 210 211 222 230 223 214 202 193 188 195 293 309 320 329 1 71 106 105 98 94 99 99 96 87 77 60 49
161 181 147 171 161 140 174 143 193 199 150 180 230 247 160 122 176 242 232 174 184 193 199 212 216 213 212 210 213 214 211 215 215 208 207 218 244 287 308 329 79 126 129 121 116 112 113 106 101 86 67 55 54 55
139 189 149 147 143 133 81 90 137 124 157 197 206 149 130 208 243 250 200 192 180 185 203 230 226 206 194 194 201 204 204 212 215 221 222 217 227 262 276 190 153 148 137 132 131 125 117 107 89 73 69 72 63 47
130 162 157 165 135 161 136 140 157 189 196 175 135 182 191 199 237 180 198 202 226 219 214 207 202 201 202 206 207 202 217 224 246 227 224 218 218 225 191 164 154 149 146 140 134 126 116 101 88 92 90 74 56 37
116 138 132 67 110 150 178 170 193 164 158 172 172 202 222 202 245 214 201 215 219 197 181 165 156 158 172 179 189 214 226 238 226 189 185 187 180 167 157 153 152 149 139 135 133 125 110 101 104 97 80 59 38 21
139 147 97 96 129 197 158 151 145 152 154 155 140 133 142 156 151 154 162 161 153 146 144 145 160 179 193 213 218 212 203 185 164 163 163 155 147 148 147 144 142 139 137 131 125 118 115 115 106 87 64 42 28 21
132 117 86 74 120 120 137 133 134 131 133 154 161 163 153 145 139 117 113 131 135 151 176 203 227 232 223 197 173 159 150 149 144 145 143 143 142 141 139 138 136 134 134 130 128 125 119 110 94 76 54 36 22 16
125 118 129 116 127 141 136 131 133 118 128 146 157 160 158 162 172 176 142 157 192 221 245 246 225 193 173 156 147 143 138 139 142 142 140 140 140 139 137 134 133 132 127 127 127 120 113 101 80 60 44 28 22 21
114 107 100 112 127 183 170 150 140 118 106 124 152 170 183 190 193 179 185 264 254 209 174 158 149 145 144 143 142 140 138 136 136 137 138 136 136 136 134 132 132 131 131 128 122 115 104 86 64 47 36 32 38 44